[[{"header":{"parameterUnit":"m.s-1","parameterCategory":1,"la1":30.2991,"la2":30.254,"lo1":-89.0895,"lo2":-89.0444,"dy":0.0017,"dx":0.0017,"nx":28,"ny":28,"refTime":"2023-10-28T09:00:00:Z","depth":0,"parameterNumber":2,"parameterNumberName":"U-component_of_WINDS"},"data":[0,0,0,0,0,0,0,0,0,0,0,0,0,0,0,0,0,0,0,0,0,0,0,0,0,0,0,0,0,0,0,0,0,0,0,0,0,0,0,0,0,0,0,0,0,0,0,0,0,0,0,0,0,0,0,0,0,0,-3.207,-3.207,0,-3.2109,-3.211,-3.211,-3.2044,-3.2042,-3.2039,-3.2037,-3.2077,-3.208,-3.2083,0,0,0,0,0,0,0,0,0,0,0,0,0,-3.1938,-3.194,-3.207,-3.2071,-3.2071,-3.2109,-3.211,-3.211,-3.2044,-3.2041,-3.2039,-3.2036,-3.2076,-3.2079,-3.2083,0,0,0,0,0,0,0,0,0,0,0,0,0,-3.1988,-3.1941,-3.207,-3.2043,-3.2041,-3.2109,-3.211,-3.2111,-3.2045,-3.2041,-3.2038,-3.2035,-3.2074,-3.2079,-3.2084,-3.2181,0,0,-3.2098,-3.21,0,0,0,0,0,0,0,0,-3.1985,-3.1993,-3.2046,-3.2045,-3.2042,-3.2068,-3.2078,-3.2134,-3.2046,-3.2043,-3.2037,-3.2033,-3.2076,-3.2081,-3.2096,-3.2182,-3.2184,-3.2098,-3.2101,-3.2103,-3.2105,0,0,0,0,0,0,0,-3.1982,-3.1991,-3.2086,-3.2047,-3.2045,-3.2028,-3.2032,-3.2088,-3.2078,-3.2043,-3.2038,-3.2044,-3.2075,-3.2091,-3.2096,-3.2185,-3.2098,-3.2102,-3.2105,-3.2107,-3.2355,-3.2358,0,0,0,0,0,0,-3.1982,-3.1988,-3.2084,-3.2087,-3.2005,-3.2034,-3.2037,-3.2063,-3.2077,-3.2076,-3.2047,-3.2041,-3.2085,-3.2091,-3.2097,-3.2212,-3.2103,-3.2108,-3.211,-3.2351,-3.2355,-3.2359,0,0,0,0,0,0,-3.1979,-3.1991,-3.2083,-3.2036,-3.2047,-3.204,-3.2069,-3.2066,-3.2082,-3.208,-3.2078,-3.2065,-3.2082,-3.2091,-3.2161,-3.2212,-3.211,-3.2114,-3.2346,-3.2352,-3.2357,-3.2442,0,0,0,0,0,0,-3.1976,-3.199,-3.2027,-3.2038,-3.205,-3.2146,-3.2072,-3.2069,-3.2091,-3.2083,-3.2097,-3.2096,-3.208,-3.2154,-3.2165,-3.2217,-3.2118,-3.2342,-3.2349,-3.2356,-3.2435,-3.245,-3.2463,0,0,0,0,0,-3.1971,-3.2049,-3.2029,-3.2041,-3.2095,-3.2149,-3.2155,-3.2136,-3.2095,-3.2132,-3.2131,-3.2096,-3.2206,-3.2162,-3.2174,-3.2228,-3.2338,-3.2347,-3.2355,-3.2429,-3.2447,-3.2463,0,0,0,0,0,0,-3.2043,-3.2049,-3.2028,-3.2111,-3.213,-3.2137,-3.2183,-3.2156,-3.2186,-3.2178,-3.2152,-3.2156,-3.2232,-3.2237,-3.2188,-3.2323,-3.2265,-3.2276,-3.2317,-3.2335,-3.2348,-3.2345,-3.2122,0,0,0,0,0,-3.2069,-3.2112,-3.2115,-3.2189,-3.2199,-3.219,-3.2212,-3.2196,-3.2214,-3.2222,-3.2226,-3.2245,-3.2284,-3.231,-3.2345,-3.2436,-3.2439,-3.248,-3.2494,-3.2506,-3.2515,-3.2565,-3.2583,-3.2387,-3.2387,-3.2387,0,0,-3.2122,-3.2131,-3.2159,-3.2203,-3.2216,-3.2261,-3.2197,-3.2247,-3.2281,-3.2229,-3.2296,-3.23,-3.232,-3.2401,-3.2437,-3.2408,-3.257,-3.2516,-3.2526,-3.2529,-3.2575,-3.2594,-3.261,-3.2393,-3.2392,-3.2391,0,0,-3.2242,-3.2253,-3.2315,-3.233,-3.2351,-3.2344,-3.236,-3.2372,-3.2373,-3.244,-3.2402,-3.2442,-3.2509,-3.2525,-3.2542,-3.2672,-3.264,-3.2684,-3.2758,-3.2806,-3.2822,-3.2835,-3.2881,-3.2898,-3.2694,-3.2694,-3.2694,0,-3.2305,-3.2372,-3.2351,-3.2405,-3.2425,-3.2383,-3.2446,-3.2461,-3.2492,-3.2508,-3.2475,-3.256,-3.257,-3.2655,-3.2686,-3.2702,-3.2719,-3.2681,-3.2821,-3.2835,-3.2847,-3.2891,-3.2908,-3.2699,-3.2699,-3.2698,-3.2698,0,-3.2448,-3.2496,-3.2544,-3.2576,-3.2602,-3.2661,-3.2649,-3.2679,-3.2661,-3.2659,-3.2728,-3.2739,-3.2777,-3.2796,-3.2779,-3.2879,-3.2861,-3.2825,-3.2766,-3.2871,-3.2912,-3.2928,-3.2707,-3.2705,-3.2703,-3.2702,0,0,-3.2612,-3.2634,-3.2652,-3.2666,-3.2687,-3.2723,-3.2781,-3.2818,-3.2844,-3.2868,-3.2915,-3.2975,-3.2943,-3.2962,-3.2946,-3.2989,-3.3092,-3.2949,-3.2949,-3.2974,-3.3204,-3.323,-3.3249,-3.3072,-3.3075,-3.3078,-3.3202,0,-3.2731,-3.2829,-3.2814,-3.2909,-3.2953,-3.2914,-3.2964,-3.2983,-3.2983,-3.302,-3.302,-3.3063,-3.3017,-3.3029,-3.307,-3.3071,-3.3137,-3.3062,-3.3116,-3.3118,-3.3111,-3.3271,-3.3298,-3.3414,-3.3218,-3.322,-3.3222,0,-3.2882,-3.2912,-3.3012,-3.3028,-3.3046,-3.3091,-3.3125,-3.3161,-3.3182,-3.3179,-3.3203,-3.318,-3.3238,-3.318,-3.3259,-3.3208,-3.323,-3.3234,-3.3238,-3.3241,-3.3176,-3.3277,-3.3451,-3.3468,-3.3247,-3.3245,-3.3243,0,-3.2991,-3.3057,-3.3126,-3.3139,-3.3159,-3.3192,-3.3202,-3.322,-3.3244,-3.3274,-3.329,-3.3327,-3.3346,-3.3375,-3.3364,-3.3322,-3.3446,-3.3386,-3.3445,-3.3446,-3.3471,-3.347,-3.365,-3.3488,-3.3487,-3.3487,-3.3487,0,-3.3124,-3.3187,-3.3175,-3.3217,-3.3287,-3.3269,-3.3338,-3.3343,-3.336,-3.3403,-3.3372,-3.3413,-3.3396,-3.3436,-3.3428,-3.3495,-3.3504,-3.3504,-3.35,-3.3506,-3.3506,-3.3519,-3.351,-3.3492,-3.3491,-3.349,-3.3489,0,-3.3257,-3.3251,-3.3323,-3.3337,-3.3343,-3.3393,-3.3405,-3.3445,-3.3444,-3.3499,-3.351,-3.3508,-3.3554,-3.3546,-3.3597,-3.3591,-3.3676,-3.3663,-3.3669,-3.3665,-3.3725,-3.3719,-3.3918,-3.3944,-3.3766,-3.3767,-3.3769,0,-3.3342,-3.3389,-3.3409,-3.3436,-3.3448,-3.3492,-3.3517,-3.3502,-3.353,-3.3559,-3.3595,-3.3639,-3.3672,-3.3748,-3.3751,-3.379,-3.3777,-3.3845,-3.3783,-3.3787,-3.3778,-3.3775,-3.378,-3.3856,-3.3858,-3.386,-3.3861,0,-3.3493,-3.3489,-3.3526,-3.3564,-3.3595,-3.3623,-3.3649,-3.3673,-3.366,-3.3693,-3.374,-3.3766,-3.3819,-3.3863,-3.39,-3.391,-3.3884,-3.3882,-3.3897,-3.3902,-3.3904,-3.3904,-3.3701,-3.3876,-3.3875,-3.3874,-3.3873,-3.3872,-3.3604,-3.3645,-3.3666,-3.3709,-3.3727,-3.3752,-3.3791,-3.3795,-3.3834,-3.3876,-3.3865,-3.3919,-3.3941,-3.3988,-3.4003,-3.4045,-3.402,-3.4042,-3.4048,-3.4054,-3.4061,-3.3898,-3.4051,-3.4051,-3.4051,-3.405,-3.405,0,-3.3754,-3.3766,-3.3806,-3.3843,-3.3878,-3.3852,-3.388,-3.391,-3.3958,-3.398,-3.4015,-3.407,-3.4113,-3.412,-3.4161,-3.4194,-3.4183,-3.4205,-3.4202,-3.4205,-3.4081,-3.4063,-3.4213,-3.4213,-3.4213,-3.4213,-3.4213,-3.4213,-3.3836,-3.3904,-3.3902,-3.398,-3.3991,-3.4044,-3.4062,-3.4085,-3.4103,-3.4166,-3.4202,-3.4207,-3.4224,-3.4267,-3.4305,-3.4307,-3.4323,-3.435,-3.4346,-3.423,-3.4213,-3.4198,-3.4181,-3.4353,-3.4354,-3.4467,-3.4468,-3.4469]},{"header":{"parameterUnit":"m.s-1","parameterCategory":1,"la1":30.2991,"la2":30.254,"lo1":-89.0895,"lo2":-89.0444,"dy":0.0017,"dx":0.0017,"nx":28,"ny":28,"refTime":"2023-10-28T09:00:00:Z","depth":0,"parameterNumber":3,"parameterNumberName":"V-component_of_WINDS"},"data":[0,0,0,0,0,0,0,0,0,0,0,0,0,0,0,0,0,0,0,0,0,0,0,0,0,0,0,0,0,0,0,0,0,0,0,0,0,0,0,0,0,0,0,0,0,0,0,0,0,0,0,0,0,0,0,0,0,0,1.342,1.3421,0,1.3473,1.3473,1.3474,1.3509,1.3509,1.3509,1.3509,1.3559,1.3561,1.3562,0,0,0,0,0,0,0,0,0,0,0,0,0,1.3347,1.3348,1.342,1.3421,1.3421,1.3473,1.3473,1.3474,1.3508,1.3509,1.3509,1.3509,1.3559,1.356,1.3562,0,0,0,0,0,0,0,0,0,0,0,0,0,1.3387,1.3349,1.342,1.3445,1.3448,1.3473,1.3473,1.3474,1.3508,1.3509,1.3509,1.3509,1.3559,1.356,1.3562,1.3565,0,0,1.3567,1.3568,0,0,0,0,0,0,0,0,1.3385,1.339,1.344,1.3443,1.3446,1.3485,1.3466,1.3505,1.3508,1.3485,1.3509,1.351,1.3534,1.3538,1.3547,1.3568,1.357,1.3567,1.3568,1.3569,1.3569,0,0,0,0,0,0,0,1.3382,1.3388,1.3441,1.3441,1.3445,1.3453,1.3459,1.3474,1.3507,1.3487,1.349,1.3496,1.3536,1.3545,1.3548,1.357,1.3567,1.3569,1.357,1.357,1.3599,1.3599,0,0,0,0,0,0,1.3376,1.3385,1.3439,1.3442,1.3416,1.3454,1.3461,1.3472,1.3507,1.3513,1.3496,1.3497,1.3542,1.3546,1.355,1.3558,1.3569,1.357,1.3571,1.3599,1.3599,1.3599,0,0,0,0,0,0,1.3374,1.338,1.3437,1.3415,1.3422,1.3455,1.3467,1.3473,1.3482,1.3513,1.3519,1.3499,1.3542,1.3548,1.3562,1.356,1.3571,1.3573,1.3599,1.3599,1.3599,1.3572,0,0,0,0,0,0,1.3372,1.3379,1.3381,1.3414,1.3424,1.3448,1.3467,1.3473,1.3485,1.3488,1.3518,1.3523,1.3543,1.3559,1.3564,1.3562,1.3574,1.36,1.3599,1.3599,1.3573,1.357,1.3568,0,0,0,0,0,1.3369,1.337,1.3381,1.3387,1.3427,1.3448,1.3453,1.3477,1.3485,1.3487,1.3507,1.3522,1.3559,1.356,1.3566,1.3565,1.36,1.3599,1.3599,1.3574,1.3571,1.3568,0,0,0,0,0,0,1.3334,1.3375,1.3387,1.3399,1.342,1.3454,1.3457,1.3473,1.3491,1.3493,1.352,1.3527,1.3539,1.3553,1.3553,1.3571,1.3582,1.3582,1.3561,1.3558,1.3556,1.3552,1.3575,0,0,0,0,0,1.3328,1.3343,1.3377,1.3385,1.3395,1.3424,1.3434,1.3451,1.3474,1.3482,1.3503,1.3523,1.354,1.355,1.3566,1.3576,1.3583,1.3578,1.3575,1.3573,1.3573,1.3581,1.3579,1.3597,1.3597,1.3597,0,0,1.3314,1.3339,1.3346,1.3378,1.3396,1.3411,1.3431,1.3445,1.3456,1.3484,1.3499,1.3516,1.354,1.3552,1.3559,1.3565,1.357,1.3573,1.3571,1.3572,1.358,1.3578,1.3577,1.3596,1.3596,1.3596,0,0,1.3298,1.3318,1.3327,1.3346,1.3374,1.3394,1.3396,1.3429,1.3441,1.3458,1.3479,1.3492,1.352,1.3537,1.3549,1.3542,1.3557,1.3547,1.3535,1.3542,1.354,1.3539,1.3538,1.3537,1.3547,1.3547,1.3547,0,1.3278,1.3302,1.3329,1.3344,1.3357,1.3385,1.3395,1.3411,1.3442,1.3451,1.3458,1.3495,1.3513,1.353,1.3529,1.3538,1.3541,1.3543,1.3538,1.3538,1.3537,1.3536,1.3535,1.3545,1.3546,1.3546,1.3546,0,1.3276,1.3293,1.3297,1.3329,1.3343,1.3354,1.3384,1.3395,1.3411,1.343,1.3447,1.3471,1.3494,1.3499,1.3514,1.3519,1.3522,1.3533,1.3545,1.3533,1.3533,1.3533,1.3543,1.3544,1.3544,1.3545,0,0,1.3237,1.3287,1.3288,1.3304,1.3338,1.3351,1.3364,1.3389,1.3398,1.3419,1.3431,1.3455,1.3467,1.348,1.3498,1.3504,1.3499,1.3515,1.3516,1.3511,1.3507,1.3499,1.3498,1.3509,1.3509,1.3509,1.3505,0,1.3227,1.3253,1.328,1.3297,1.3313,1.3341,1.3353,1.3375,1.3394,1.341,1.343,1.3447,1.346,1.3469,1.3476,1.3498,1.3498,1.3498,1.352,1.3521,1.3513,1.3497,1.3488,1.3483,1.3505,1.3505,1.3505,0,1.3217,1.324,1.3259,1.3294,1.3302,1.3312,1.3338,1.3353,1.3379,1.3392,1.3409,1.3429,1.3444,1.3454,1.3476,1.3476,1.3486,1.3498,1.3499,1.3501,1.3512,1.35,1.3482,1.3481,1.3505,1.3505,1.3505,0,1.3188,1.3223,1.324,1.3252,1.3293,1.33,1.3317,1.3344,1.3358,1.338,1.3389,1.3412,1.3424,1.3441,1.3466,1.3471,1.3486,1.3497,1.3497,1.3497,1.3498,1.3498,1.3482,1.3505,1.3505,1.3505,1.3505,0,1.3173,1.3184,1.3228,1.3237,1.3251,1.3281,1.3293,1.3313,1.3337,1.3351,1.3376,1.3389,1.3421,1.3438,1.3457,1.3473,1.3478,1.349,1.3495,1.3487,1.3486,1.3495,1.3496,1.3505,1.3505,1.3505,1.3505,0,1.3142,1.3172,1.3192,1.3231,1.3241,1.3249,1.3281,1.3292,1.3314,1.3332,1.3337,1.3371,1.3392,1.3419,1.3447,1.3461,1.3474,1.3482,1.3466,1.3469,1.3468,1.3467,1.3457,1.3457,1.3479,1.3479,1.3478,0,1.3131,1.314,1.3181,1.3193,1.3211,1.323,1.3245,1.3275,1.329,1.3322,1.3329,1.3352,1.3373,1.3405,1.3431,1.3454,1.3462,1.3457,1.3466,1.3459,1.3463,1.3462,1.3464,1.3455,1.3454,1.3454,1.3454,0,1.3108,1.3123,1.3144,1.3171,1.3189,1.3211,1.3234,1.3243,1.3278,1.3293,1.3316,1.3332,1.3364,1.3386,1.3413,1.343,1.3448,1.3451,1.3452,1.3445,1.3436,1.3442,1.346,1.3451,1.3451,1.3451,1.3452,1.3452,1.3087,1.3098,1.3129,1.3152,1.3173,1.3195,1.3208,1.3232,1.3253,1.3282,1.3298,1.3321,1.3349,1.3387,1.3403,1.3421,1.3428,1.3429,1.343,1.343,1.3428,1.3433,1.3426,1.3426,1.3426,1.3426,1.3426,0,1.3066,1.3088,1.311,1.3143,1.3161,1.3179,1.3206,1.322,1.324,1.3265,1.3286,1.3313,1.3336,1.3365,1.339,1.3399,1.3408,1.3405,1.3404,1.3408,1.342,1.3417,1.3397,1.3397,1.3397,1.3397,1.3397,1.3397,1.3057,1.3077,1.3096,1.3126,1.3148,1.3172,1.3186,1.3207,1.3227,1.3257,1.3277,1.3297,1.3324,1.3352,1.3374,1.3382,1.339,1.3384,1.3394,1.3405,1.3407,1.341,1.3407,1.3386,1.3386,1.3381,1.3381,1.3381]}]]